This demonstration page uses our WeatherBlox Daily Observations layout. Learn more.

Left ArrowRight Arrow

36.19886, -115.1175

Hourly Observations for May 20, 2022

Temp ( °F °C ) Dew Point ( °F °C ) Humidity (%) Winds ( mph kmh ) Pressure ( in mb ) Visibility ( mi km ) Precip ( " mm )
12:53 am 00:53 Clear 83 28.3 33 0.6 17 17 ESE 10 17 29.40 996 10 16 0.00 0.00
1:53 am 01:53 Clear 81 27.2 34 1.1 18 18 WNW 12 19 29.41 996 10 16 0.00 0.00
2:53 am 02:53 Clear 79 26.1 34 1.1 20 20 NW 5 7 29.42 996 10 16 0.00 0.00
3:53 am 03:53 Clear 79 26.1 33 0.6 19 19 NNW 9 15 29.45 997 10 16 0.00 0.00
4:53 am 04:53 Clear 78 25.6 28 -2.2 16 16 NNW 12 19 29.47 998 10 16 0.00 0.00
5:53 am 05:53 Sunny 76 24.4 21 -6.1 13 13 N 12 19 29.52 1000 10 16 0.00 0.00
6:53 am 06:53 Sunny with Light Rain 73 22.8 16 -8.9 11 11 NW 32 52 29.56 1001 9 14 0.00 0.00
7:53 am 07:53 Sunny 71 21.7 16 -8.9 12 12 NW 28 44 29.62 1003 10 16 0.00 0.00
8:53 am 08:53 Sunny 71 21.7 16 -8.9 12 12 NNW 24 39 29.66 1005 10 16 0.00 0.00
9:53 am 09:53 Sunny 72 22.2 16 -8.9 12 12 NNW 30 48 29.68 1005 10 16 0.00 0.00
10:53 am 10:53 Sunny 75 23.9 16 -8.9 10 10 NNW 20 31 29.70 1006 10 16 0.00 0.00
11:53 am 11:53 Sunny 76 24.4 15 -9.4 10 10 NNW 22 35 29.69 1006 10 16 0.00 0.00
12:53 pm 12:53 Sunny 78 25.6 16 -8.9 9 9 NNW 18 30 29.69 1006 10 16 0.00 0.00
1:53 pm 13:53 Sunny 79 26.1 16 -8.9 9 9 NW 10 17 29.69 1006 10 16 0.00 0.00
2:53 pm 14:53 Sunny 80 26.7 16 -8.9 9 9 NW 12 19 29.69 1005 10 16 0.00 0.00
3:53 pm 15:53 Sunny 81 27.2 15 -9.4 8 8 NW 14 22 29.66 1005 10 16 0.00 0.00
4:53 pm 16:53 Sunny 81 27.2 15 -9.4 8 8 undefined N/A 29.66 1005 10 16 0.00 0.00
5:53 pm 17:53 Sunny 80 26.7 13 -10.6 8 8 ENE 10 17 29.67 1005 10 16 0.00 0.00
6:53 pm 18:53 Sunny 79 26.1 13 -10.6 8 8 NE 8 13 29.67 1005 10 16 0.00 0.00
7:53 pm 19:53 Clear 77 25 10 -12.2 8 8 ENE 10 17 29.70 1006 10 16 0.00 0.00
8:53 pm 20:53 Clear 76 24.4 8 -13.3 7 7 NE 14 22 29.72 1007 10 16 0.00 0.00
9:53 pm 21:53 Clear 72 22.2 11 -11.7 9 9 ENE 21 33 29.77 1008 10 16 0.00 0.00
10:53 pm 22:53 Clear 70 21.1 10 -12.2 10 10 NE 18 30 29.79 1009 10 16 0.00 0.00
11:53 pm 23:53 Clear 69 20.6 10 -12.2 10 10 NNE 17 28 29.81 1009 10 16 0.00 0.00

Powered by AerisWeather